SIA122 RPLL-WSSS

Flight info

Callsign SIA122
Flight time 2h 57m
Altitude 40000
Route BUCAL2R BUCAL M646 TOKON M767 TOMAN KARTO2A
Aircraft A359/H-SDE2E3GHIJ3J4J5LM1ORWXY/LB1D1

Departure

Time 2026-05-06 16:30
Airport Ninoy Aquino International Airport (RPLL)

Arrival

Time 2026-05-06 19:28
Airport Singapore Changi Airport (WSSS)
Time Latitude Longitude Altitude Speed Heading
2026-05-06 16:19 14.50372 121.00638 64 ft 0 kts 240°
2026-05-06 16:22 14.50371 121.00635 64 ft 1 kts 239°
2026-05-06 16:22 14.50326 121.00556 68 ft 9 kts 240°
2026-05-06 16:22 14.50287 121.00487 64 ft 13 kts 240°
2026-05-06 16:22 14.50255 121.00429 73 ft 7 kts 240°
2026-05-06 16:23 14.50235 121.00394 70 ft 5 kts 239°
2026-05-06 16:23 14.50205 121.00352 69 ft 11 kts 219°
2026-05-06 16:23 14.50156 121.00339 73 ft 12 kts 194°
2026-05-06 16:23 14.50089 121.00277 64 ft 14 kts 237°
2026-05-06 16:24 14.50032 121.00174 67 ft 19 kts 240°
2026-05-06 16:24 14.49962 121.00052 65 ft 11 kts 240°
2026-05-06 16:24 14.49956 121.00041 75 ft 0 kts 240°
2026-05-06 16:24 14.49941 121.00015 65 ft 5 kts 239°
2026-05-06 16:25 14.49936 121.00006 65 ft 3 kts 238°
2026-05-06 16:25 14.49926 120.99991 66 ft 1 kts 230°
2026-05-06 16:25 14.49922 120.99987 66 ft 1 kts 227°
2026-05-06 16:25 14.49921 120.99986 66 ft 0 kts 227°
2026-05-06 16:26 14.49920 120.99985 66 ft 0 kts 227°
2026-05-06 16:26 14.49905 120.99976 66 ft 0 kts 206°
2026-05-06 16:26 14.49884 120.99973 67 ft 0 kts 180°
2026-05-06 16:27 14.49847 120.99984 66 ft 9 kts 156°
2026-05-06 16:27 14.49838 120.99989 66 ft 0 kts 153°
2026-05-06 16:29 14.49836 120.99990 67 ft 5 kts 150°
2026-05-06 16:29 14.49821 121.00067 67 ft 11 kts 62°
2026-05-06 16:29 14.49884 121.00180 66 ft 42 kts 60°
2026-05-06 16:29 14.50154 121.00672 63 ft 115 kts 60°
2026-05-06 16:30 14.50659 121.01573 105 ft 172 kts 62°
2026-05-06 16:30 14.51102 121.02340 299 ft 194 kts 60°
2026-05-06 16:30 14.52014 121.03983 1426 ft 196 kts 61°
2026-05-06 16:30 14.52688 121.05218 2070 ft 202 kts 60°
2026-05-06 16:31 14.53423 121.06555 2294 ft 226 kts 60°
2026-05-06 16:31 14.54241 121.08032 2594 ft 245 kts 60°
2026-05-06 16:31 14.55106 121.09593 3146 ft 253 kts 60°
2026-05-06 16:31 14.55942 121.11199 3764 ft 257 kts 66°
2026-05-06 16:32 14.56453 121.12956 4334 ft 263 kts 78°
2026-05-06 16:32 14.56541 121.14862 4886 ft 269 kts 97°
2026-05-06 16:32 14.55874 121.16660 5468 ft 272 kts 124°
2026-05-06 16:32 14.54427 121.17905 6099 ft 276 kts 154°
2026-05-06 16:33 14.52535 121.18221 6656 ft 282 kts 185°
2026-05-06 16:33 14.50685 121.17525 7174 ft 288 kts 208°
2026-05-06 16:33 14.48984 121.16398 7703 ft 293 kts 212°
2026-05-06 16:34 14.45543 121.14033 8769 ft 301 kts 211°
2026-05-06 16:34 14.43780 121.12851 9317 ft 304 kts 211°
2026-05-06 16:34 14.41985 121.11661 9857 ft 308 kts 211°
2026-05-06 16:34 14.40181 121.10474 10235 ft 316 kts 211°
2026-05-06 16:35 14.38285 121.09230 10453 ft 330 kts 210°
2026-05-06 16:35 14.36308 121.07936 10649 ft 343 kts 210°
2026-05-06 16:35 14.34256 121.06595 10841 ft 355 kts 211°
2026-05-06 16:35 14.32131 121.05206 11029 ft 366 kts 211°
2026-05-06 16:36 14.29955 121.03783 11360 ft 371 kts 211°
2026-05-06 16:36 14.27763 121.02349 11713 ft 376 kts 210°
2026-05-06 16:36 14.25547 121.00901 12117 ft 378 kts 210°
2026-05-06 16:36 14.23310 120.99438 12467 ft 382 kts 210°
2026-05-06 16:37 14.21069 120.97976 12893 ft 382 kts 210°
2026-05-06 16:37 14.18815 120.96504 13298 ft 384 kts 211°
2026-05-06 16:37 14.16556 120.95031 13714 ft 385 kts 211°
2026-05-06 16:37 14.14289 120.93552 14048 ft 386 kts 211°
2026-05-06 16:38 14.12010 120.92065 14344 ft 389 kts 211°
2026-05-06 16:38 14.09713 120.90567 14659 ft 392 kts 211°
2026-05-06 16:38 14.07434 120.89081 14970 ft 393 kts 211°
2026-05-06 16:38 14.05115 120.87569 15303 ft 395 kts 211°
2026-05-06 16:39 14.02781 120.86048 15641 ft 397 kts 211°
2026-05-06 16:39 14.00434 120.84519 15972 ft 399 kts 211°
2026-05-06 16:39 13.98071 120.82980 16282 ft 402 kts 211°
2026-05-06 16:39 13.95706 120.81440 16608 ft 404 kts 211°
2026-05-06 16:40 13.93325 120.79890 16933 ft 406 kts 211°
2026-05-06 16:40 13.90932 120.78332 17244 ft 408 kts 211°
2026-05-06 16:40 13.88527 120.76768 17560 ft 410 kts 211°
2026-05-06 16:40 13.86110 120.75195 17870 ft 412 kts 212°
2026-05-06 16:41 13.83710 120.73635 18186 ft 414 kts 211°
2026-05-06 16:41 13.81267 120.72046 18440 ft 416 kts 211°
2026-05-06 16:41 13.78816 120.70454 18702 ft 418 kts 211°
2026-05-06 16:41 13.76351 120.68852 18997 ft 419 kts 211°
2026-05-06 16:42 13.73873 120.67242 19239 ft 422 kts 211°
2026-05-06 16:42 13.71377 120.65620 19426 ft 425 kts 211°
2026-05-06 16:42 13.68879 120.63999 19774 ft 425 kts 211°
2026-05-06 16:42 13.66380 120.62378 20094 ft 424 kts 211°
2026-05-06 16:43 13.63875 120.60751 20336 ft 427 kts 211°
2026-05-06 16:43 13.61352 120.59117 20568 ft 430 kts 211°
2026-05-06 16:43 13.58741 120.57592 20762 ft 432 kts 207°
2026-05-06 16:43 13.56051 120.56204 21083 ft 432 kts 205°
2026-05-06 16:44 13.53363 120.54905 21424 ft 431 kts 204°
2026-05-06 16:44 13.50635 120.53624 21716 ft 432 kts 204°
2026-05-06 16:44 13.47886 120.52339 21956 ft 434 kts 204°
2026-05-06 16:44 13.45137 120.51047 22188 ft 436 kts 204°
2026-05-06 16:45 13.42379 120.49739 22442 ft 437 kts 204°
2026-05-06 16:45 13.39614 120.48420 22680 ft 439 kts 204°
2026-05-06 16:45 13.36838 120.47088 22931 ft 441 kts 204°
2026-05-06 16:45 13.34051 120.45749 23173 ft 442 kts 204°
2026-05-06 16:46 13.31295 120.44423 23414 ft 444 kts 204°
2026-05-06 16:46 13.28481 120.43076 23617 ft 445 kts 204°
2026-05-06 16:46 13.25669 120.41724 23825 ft 446 kts 205°
2026-05-06 16:46 13.22857 120.40371 24052 ft 447 kts 205°
2026-05-06 16:47 13.20034 120.39013 24268 ft 448 kts 205°
2026-05-06 16:47 13.17200 120.37650 24464 ft 450 kts 204°
2026-05-06 16:47 13.14392 120.36301 24661 ft 451 kts 205°
2026-05-06 16:47 13.11546 120.34935 24910 ft 451 kts 205°
2026-05-06 16:48 13.08703 120.33571 25170 ft 451 kts 205°
2026-05-06 16:48 13.05855 120.32205 25368 ft 453 kts 205°
2026-05-06 16:48 13.03007 120.30840 25594 ft 454 kts 205°
2026-05-06 16:48 13.00134 120.29463 25829 ft 455 kts 205°
2026-05-06 16:49 12.97264 120.28088 26066 ft 455 kts 205°
2026-05-06 16:49 12.94389 120.26710 26254 ft 458 kts 205°
2026-05-06 16:49 12.91496 120.25325 26474 ft 459 kts 205°
2026-05-06 16:49 12.88593 120.23935 26709 ft 460 kts 205°
2026-05-06 16:50 12.85684 120.22542 26954 ft 461 kts 205°
2026-05-06 16:50 12.82776 120.21150 27194 ft 462 kts 205°
2026-05-06 16:50 12.79862 120.19757 27435 ft 463 kts 205°
2026-05-06 16:50 12.76935 120.18357 27679 ft 465 kts 205°
2026-05-06 16:51 12.73999 120.16953 27930 ft 466 kts 205°
2026-05-06 16:51 12.71094 120.15564 28152 ft 467 kts 205°
2026-05-06 16:51 12.68145 120.14155 28379 ft 469 kts 205°
2026-05-06 16:51 12.65177 120.12737 28596 ft 471 kts 205°
2026-05-06 16:52 12.62199 120.11314 28814 ft 473 kts 205°
2026-05-06 16:52 12.59217 120.09890 29073 ft 474 kts 205°
2026-05-06 16:52 12.56218 120.08458 29313 ft 475 kts 205°
2026-05-06 16:52 12.53215 120.07025 29556 ft 477 kts 206°
2026-05-06 16:53 12.50207 120.05589 29803 ft 478 kts 206°
2026-05-06 16:53 12.47175 120.04143 30037 ft 480 kts 206°
2026-05-06 16:53 12.44140 120.02695 30244 ft 481 kts 206°
2026-05-06 16:53 12.41089 120.01240 30451 ft 483 kts 206°
2026-05-06 16:54 12.38072 119.99802 30680 ft 484 kts 206°
2026-05-06 16:54 12.35009 119.98343 30896 ft 486 kts 206°
2026-05-06 16:54 12.31938 119.96879 31121 ft 488 kts 206°
2026-05-06 16:54 12.28862 119.95414 31355 ft 489 kts 206°
2026-05-06 16:55 12.25773 119.93943 31567 ft 490 kts 206°
2026-05-06 16:55 12.22677 119.92469 31784 ft 492 kts 206°
2026-05-06 16:55 12.19567 119.90989 31991 ft 493 kts 206°
2026-05-06 16:55 12.16449 119.89505 32195 ft 494 kts 206°
2026-05-06 16:56 12.13329 119.88021 32391 ft 496 kts 206°
2026-05-06 16:56 12.10193 119.86530 32589 ft 497 kts 206°
2026-05-06 16:56 12.07087 119.85053 32774 ft 498 kts 206°
2026-05-06 16:56 12.03933 119.83554 32937 ft 500 kts 206°
2026-05-06 16:57 12.00772 119.82051 33106 ft 502 kts 206°
2026-05-06 16:57 11.97597 119.80543 33286 ft 503 kts 206°
2026-05-06 16:57 11.94426 119.79037 33494 ft 504 kts 206°
2026-05-06 16:57 11.91248 119.77528 33788 ft 502 kts 206°
2026-05-06 16:58 11.88071 119.76020 34065 ft 501 kts 206°
2026-05-06 16:58 11.84918 119.74524 34349 ft 500 kts 206°
2026-05-06 16:58 11.81769 119.73030 34646 ft 498 kts 206°
2026-05-06 16:58 11.78623 119.71538 34937 ft 497 kts 206°
2026-05-06 16:59 11.75497 119.70051 35241 ft 495 kts 207°
2026-05-06 16:59 11.72493 119.68339 35520 ft 493 kts 214°
2026-05-06 16:59 11.69805 119.66252 35800 ft 491 kts 223°
2026-05-06 16:59 11.67450 119.63743 36085 ft 489 kts 231°
2026-05-06 17:00 11.65336 119.61015 36401 ft 487 kts 233°
2026-05-06 17:00 11.63318 119.58244 36703 ft 486 kts 234°
2026-05-06 17:00 11.61337 119.55442 37025 ft 485 kts 235°
2026-05-06 17:00 11.59382 119.52651 37330 ft 484 kts 235°
2026-05-06 17:01 11.57421 119.49858 37628 ft 483 kts 234°
2026-05-06 17:01 11.55461 119.47083 37923 ft 482 kts 234°
2026-05-06 17:01 11.53520 119.44351 38252 ft 480 kts 234°
2026-05-06 17:01 11.51560 119.41604 38553 ft 479 kts 234°
2026-05-06 17:02 11.49595 119.38857 38808 ft 478 kts 234°
2026-05-06 17:02 11.47628 119.36111 39004 ft 478 kts 234°
2026-05-06 17:02 11.45658 119.33363 39199 ft 479 kts 234°
2026-05-06 17:02 11.43696 119.30626 39420 ft 478 kts 234°
2026-05-06 17:03 11.41734 119.27890 39646 ft 477 kts 234°
2026-05-06 17:03 11.39803 119.25197 39823 ft 477 kts 234°
2026-05-06 17:03 11.37840 119.22460 39872 ft 477 kts 234°
2026-05-06 17:04 11.33932 119.17012 39876 ft 476 kts 234°
2026-05-06 17:04 11.30014 119.11552 39875 ft 476 kts 234°
2026-05-06 17:05 11.26099 119.06101 39877 ft 476 kts 234°
2026-05-06 17:05 11.22213 119.00692 39875 ft 476 kts 234°
2026-05-06 17:06 11.18297 118.95245 39878 ft 476 kts 234°
2026-05-06 17:06 11.14380 118.89798 39875 ft 476 kts 234°
2026-05-06 17:07 11.10451 118.84345 39872 ft 476 kts 234°
2026-05-06 17:07 11.06533 118.78905 39873 ft 477 kts 234°
2026-05-06 17:08 11.02613 118.73457 39874 ft 477 kts 234°
2026-05-06 17:08 10.98718 118.68050 39873 ft 477 kts 234°
2026-05-06 17:09 10.94798 118.62614 39873 ft 477 kts 234°
2026-05-06 17:09 10.90868 118.57167 39872 ft 477 kts 234°
2026-05-06 17:10 10.87596 118.52635 39873 ft 477 kts 234°
2026-05-06 17:10 10.83665 118.47191 39873 ft 477 kts 234°
2026-05-06 17:11 10.79088 118.40856 39874 ft 480 kts 234°
2026-05-06 17:11 10.75763 118.36257 39871 ft 487 kts 234°
2026-05-06 17:12 10.71726 118.30676 39870 ft 491 kts 234°
2026-05-06 17:12 10.67674 118.25076 39872 ft 491 kts 234°
2026-05-06 17:13 10.63621 118.19478 39872 ft 491 kts 234°
2026-05-06 17:13 10.59591 118.13916 39873 ft 492 kts 234°
2026-05-06 17:14 10.55531 118.08314 39872 ft 492 kts 234°
2026-05-06 17:14 10.51471 118.02713 39871 ft 492 kts 233°
2026-05-06 17:15 10.47411 117.97118 39868 ft 491 kts 233°
2026-05-06 17:15 10.43351 117.91524 39870 ft 491 kts 233°
2026-05-06 17:16 10.39291 117.85934 39872 ft 491 kts 233°
2026-05-06 17:16 10.35912 117.81284 39870 ft 491 kts 233°
2026-05-06 17:17 10.30720 117.74083 39870 ft 491 kts 234°
2026-05-06 17:17 10.27170 117.69108 39870 ft 491 kts 234°
2026-05-06 17:18 10.23157 117.63492 39869 ft 491 kts 234°
2026-05-06 17:18 10.19133 117.57875 39870 ft 491 kts 234°
2026-05-06 17:19 10.15135 117.52302 39870 ft 491 kts 234°
2026-05-06 17:19 10.11097 117.46676 39868 ft 491 kts 234°
2026-05-06 17:20 10.07068 117.41066 39871 ft 492 kts 234°
2026-05-06 17:20 10.03056 117.35480 39869 ft 492 kts 234°
2026-05-06 17:21 9.99021 117.29867 39871 ft 492 kts 234°
2026-05-06 17:21 9.94986 117.24256 39870 ft 492 kts 234°
2026-05-06 17:22 9.90970 117.18672 39868 ft 492 kts 234°
2026-05-06 17:22 9.86933 117.13063 39870 ft 492 kts 234°
2026-05-06 17:23 9.82891 117.07450 39873 ft 492 kts 234°
2026-05-06 17:23 9.78850 117.01842 39870 ft 492 kts 234°
2026-05-06 17:24 9.74824 116.96257 39873 ft 492 kts 234°
2026-05-06 17:24 9.70754 116.90613 39873 ft 493 kts 234°
2026-05-06 17:25 9.66732 116.85037 39873 ft 493 kts 234°
2026-05-06 17:25 9.62682 116.79426 39872 ft 493 kts 234°
2026-05-06 17:26 9.58627 116.73812 39876 ft 493 kts 234°
2026-05-06 17:26 9.54582 116.68213 39872 ft 493 kts 234°
2026-05-06 17:27 9.50525 116.62599 39871 ft 493 kts 234°
2026-05-06 17:27 9.46472 116.56995 39874 ft 493 kts 234°
2026-05-06 17:28 9.42410 116.51380 39871 ft 494 kts 234°
2026-05-06 17:28 9.38367 116.45794 39869 ft 493 kts 234°
2026-05-06 17:29 9.34305 116.40185 39870 ft 494 kts 234°
2026-05-06 17:29 9.30240 116.34574 39870 ft 493 kts 234°
2026-05-06 17:30 9.26175 116.28968 39869 ft 494 kts 234°
2026-05-06 17:30 9.22113 116.23403 39870 ft 494 kts 233°
2026-05-06 17:31 9.18031 116.17824 39871 ft 493 kts 233°
2026-05-06 17:31 9.13932 116.12221 39871 ft 496 kts 233°
2026-05-06 17:32 9.09815 116.06593 39870 ft 498 kts 233°
2026-05-06 17:32 9.05713 116.00988 39870 ft 498 kts 233°
2026-05-06 17:33 9.01592 115.95358 39866 ft 498 kts 233°
2026-05-06 17:33 8.97472 115.89732 39870 ft 497 kts 233°
2026-05-06 17:34 8.93356 115.84121 39870 ft 496 kts 233°
2026-05-06 17:34 8.89242 115.78508 39869 ft 496 kts 233°
2026-05-06 17:35 8.85130 115.72893 39872 ft 498 kts 233°
2026-05-06 17:35 8.81023 115.67289 39870 ft 500 kts 233°
2026-05-06 17:36 8.74803 115.58810 39868 ft 500 kts 233°
2026-05-06 17:36 8.70659 115.53166 39867 ft 500 kts 233°
2026-05-06 17:37 8.66508 115.47515 39871 ft 500 kts 233°
2026-05-06 17:37 8.62362 115.41872 39868 ft 500 kts 233°
2026-05-06 17:38 8.58214 115.36228 39870 ft 499 kts 233°
2026-05-06 17:38 8.54087 115.30616 39870 ft 500 kts 233°
2026-05-06 17:39 8.49938 115.24976 39871 ft 500 kts 233°
2026-05-06 17:39 8.45785 115.19333 39870 ft 500 kts 233°
2026-05-06 17:40 8.41632 115.13692 39870 ft 500 kts 233°
2026-05-06 17:40 8.37475 115.08049 39870 ft 500 kts 233°
2026-05-06 17:41 8.33316 115.02405 39870 ft 500 kts 233°
2026-05-06 17:41 8.29183 114.96797 39864 ft 502 kts 233°
2026-05-06 17:42 8.25013 114.91144 39865 ft 502 kts 233°
2026-05-06 17:42 8.20833 114.85477 39867 ft 503 kts 233°
2026-05-06 17:43 8.16647 114.79806 39867 ft 503 kts 232°
2026-05-06 17:43 8.12463 114.74140 39864 ft 503 kts 232°
2026-05-06 17:44 8.08276 114.68472 39864 ft 503 kts 232°
2026-05-06 17:44 8.04092 114.62808 39867 ft 503 kts 233°
2026-05-06 17:45 7.99936 114.57186 39859 ft 503 kts 232°
2026-05-06 17:45 7.95735 114.51506 39859 ft 503 kts 233°
2026-05-06 17:46 7.91552 114.45852 39859 ft 502 kts 233°
2026-05-06 17:46 7.87380 114.40213 39859 ft 501 kts 233°
2026-05-06 17:47 7.83227 114.34604 39859 ft 502 kts 232°
2026-05-06 17:47 7.79033 114.28942 39859 ft 503 kts 232°
2026-05-06 17:48 7.74847 114.23293 39859 ft 503 kts 232°
2026-05-06 17:48 7.70655 114.17637 39859 ft 503 kts 232°
2026-05-06 17:49 7.66491 114.12021 39859 ft 503 kts 232°
2026-05-06 17:49 7.62298 114.06368 39862 ft 503 kts 233°
2026-05-06 17:50 7.58116 114.00731 39856 ft 502 kts 232°
2026-05-06 17:50 7.53930 113.95092 39856 ft 502 kts 232°
2026-05-06 17:51 7.49733 113.89441 39857 ft 502 kts 232°
2026-05-06 17:51 7.45578 113.83846 39857 ft 502 kts 232°
2026-05-06 17:52 7.41388 113.78209 39856 ft 502 kts 232°
2026-05-06 17:52 7.37204 113.72581 39857 ft 503 kts 232°
2026-05-06 17:53 7.32988 113.66912 39856 ft 504 kts 232°
2026-05-06 17:53 7.28789 113.61267 39856 ft 504 kts 232°
2026-05-06 17:54 7.24604 113.55643 39856 ft 504 kts 232°
2026-05-06 17:54 7.21103 113.50940 39857 ft 504 kts 232°
2026-05-06 17:55 7.16892 113.45284 39856 ft 504 kts 232°
2026-05-06 17:55 7.12682 113.39634 39857 ft 505 kts 232°
2026-05-06 17:56 7.08454 113.33961 39856 ft 506 kts 233°
2026-05-06 17:56 7.04216 113.28274 39857 ft 507 kts 233°
2026-05-06 17:57 7.00011 113.22633 39857 ft 507 kts 233°
2026-05-06 17:57 6.95785 113.16967 39856 ft 506 kts 232°
2026-05-06 17:58 6.91556 113.11301 39855 ft 506 kts 232°
2026-05-06 17:58 6.87319 113.05627 39856 ft 507 kts 233°
2026-05-06 17:59 6.83078 112.99946 39857 ft 507 kts 233°
2026-05-06 17:59 6.78832 112.94260 39856 ft 507 kts 233°
2026-05-06 18:00 6.74623 112.88627 39858 ft 507 kts 233°
2026-05-06 18:00 6.70376 112.82945 39856 ft 508 kts 233°
2026-05-06 18:01 6.66133 112.77270 39856 ft 507 kts 233°
2026-05-06 18:01 6.61881 112.71585 39853 ft 508 kts 232°
2026-05-06 18:02 6.57646 112.65925 39854 ft 508 kts 232°
2026-05-06 18:02 6.53388 112.60235 39854 ft 509 kts 232°
2026-05-06 18:03 6.49124 112.54542 39859 ft 508 kts 232°
2026-05-06 18:03 6.44865 112.48856 39858 ft 508 kts 232°
2026-05-06 18:04 6.40607 112.43172 39859 ft 509 kts 232°
2026-05-06 18:04 6.36373 112.37521 39860 ft 509 kts 232°
2026-05-06 18:05 6.32098 112.31820 39860 ft 509 kts 232°
2026-05-06 18:05 6.27855 112.26162 39859 ft 508 kts 232°
2026-05-06 18:06 6.23595 112.20483 39859 ft 508 kts 232°
2026-05-06 18:06 6.19337 112.14809 39859 ft 508 kts 232°
2026-05-06 18:07 6.15072 112.09127 39859 ft 509 kts 232°
2026-05-06 18:07 6.10831 112.03480 39859 ft 509 kts 232°
2026-05-06 18:08 6.06561 111.97794 39859 ft 509 kts 232°
2026-05-06 18:08 6.02288 111.92107 39856 ft 509 kts 232°
2026-05-06 18:09 5.98017 111.86423 39856 ft 509 kts 232°
2026-05-06 18:09 5.93745 111.80739 39856 ft 509 kts 232°
2026-05-06 18:10 5.89502 111.75098 39853 ft 509 kts 232°
2026-05-06 18:10 5.85225 111.69412 39854 ft 510 kts 232°
2026-05-06 18:11 5.80951 111.63731 39851 ft 510 kts 232°
2026-05-06 18:11 5.76672 111.58046 39850 ft 510 kts 232°
2026-05-06 18:12 5.72391 111.52359 39853 ft 510 kts 232°
2026-05-06 18:12 5.68112 111.46678 39850 ft 510 kts 232°
2026-05-06 18:13 5.63861 111.41034 39850 ft 509 kts 232°
2026-05-06 18:13 5.59585 111.35358 39850 ft 509 kts 232°
2026-05-06 18:14 5.55313 111.29690 39850 ft 509 kts 232°
2026-05-06 18:14 5.51042 111.24025 39850 ft 509 kts 232°
2026-05-06 18:15 5.46766 111.18355 39854 ft 509 kts 232°
2026-05-06 18:15 5.42488 111.12683 39853 ft 509 kts 232°
2026-05-06 18:16 5.38209 111.07011 39852 ft 510 kts 232°
2026-05-06 18:16 5.33914 111.01321 39852 ft 511 kts 232°
2026-05-06 18:17 5.29632 110.95645 39851 ft 509 kts 231°
2026-05-06 18:17 5.25376 110.90009 39852 ft 509 kts 231°
2026-05-06 18:18 5.21101 110.84349 39848 ft 509 kts 231°
2026-05-06 18:18 5.16818 110.78681 39849 ft 509 kts 232°
2026-05-06 18:19 5.12534 110.73013 39847 ft 510 kts 232°
2026-05-06 18:19 5.08251 110.67345 39847 ft 510 kts 232°
2026-05-06 18:20 5.03990 110.61709 39849 ft 510 kts 231°
2026-05-06 18:20 4.99700 110.56035 39848 ft 510 kts 231°
2026-05-06 18:21 4.95405 110.50357 39849 ft 511 kts 231°
2026-05-06 18:21 4.91125 110.44700 39848 ft 512 kts 231°
2026-05-06 18:22 4.86821 110.39013 39843 ft 512 kts 231°
2026-05-06 18:22 4.82516 110.33326 39849 ft 512 kts 231°
2026-05-06 18:23 4.78205 110.27632 39848 ft 512 kts 231°
2026-05-06 18:23 4.73921 110.21975 39849 ft 512 kts 231°
2026-05-06 18:24 4.69616 110.16291 39845 ft 512 kts 231°
2026-05-06 18:24 4.65306 110.10602 39847 ft 512 kts 231°
2026-05-06 18:25 4.61000 110.04919 39847 ft 511 kts 231°
2026-05-06 18:25 4.56691 109.99235 39848 ft 511 kts 231°
2026-05-06 18:26 4.52390 109.93562 39846 ft 511 kts 231°
2026-05-06 18:26 4.48082 109.87882 39845 ft 511 kts 231°
2026-05-06 18:27 4.43805 109.82243 39846 ft 511 kts 231°
2026-05-06 18:27 4.39500 109.76568 39842 ft 512 kts 231°
2026-05-06 18:28 4.35178 109.70873 39846 ft 512 kts 231°
2026-05-06 18:28 4.30889 109.65223 39844 ft 512 kts 231°
2026-05-06 18:29 4.26582 109.59547 39846 ft 511 kts 231°
2026-05-06 18:29 4.22276 109.53879 39846 ft 511 kts 231°
2026-05-06 18:30 4.17967 109.48205 39846 ft 511 kts 231°
2026-05-06 18:30 4.13665 109.42542 39848 ft 512 kts 231°
2026-05-06 18:31 4.09342 109.36853 39849 ft 512 kts 231°
2026-05-06 18:31 4.05018 109.31163 39849 ft 512 kts 231°
2026-05-06 18:32 4.00695 109.25477 39842 ft 512 kts 231°
2026-05-06 18:32 3.96378 109.19799 39843 ft 512 kts 231°
2026-05-06 18:33 3.92080 109.14148 39843 ft 512 kts 231°
2026-05-06 18:33 3.87758 109.08467 39849 ft 513 kts 231°
2026-05-06 18:34 3.83434 109.02784 39848 ft 513 kts 231°
2026-05-06 18:34 3.79107 108.97097 39847 ft 513 kts 231°
2026-05-06 18:35 3.74775 108.91404 39845 ft 513 kts 231°
2026-05-06 18:35 3.70472 108.85752 39846 ft 513 kts 231°
2026-05-06 18:36 3.66152 108.80070 39845 ft 513 kts 231°
2026-05-06 18:36 3.61839 108.74374 39852 ft 513 kts 232°
2026-05-06 18:37 3.58255 108.69644 39849 ft 512 kts 231°
2026-05-06 18:37 3.53212 108.62995 39849 ft 512 kts 231°
2026-05-06 18:38 3.48922 108.57342 39849 ft 512 kts 231°
2026-05-06 18:38 3.44611 108.51664 39849 ft 512 kts 231°
2026-05-06 18:39 3.40298 108.45982 39847 ft 512 kts 231°
2026-05-06 18:40 3.33831 108.37466 39847 ft 513 kts 231°
2026-05-06 18:40 3.29528 108.31801 39844 ft 513 kts 231°
2026-05-06 18:41 3.25930 108.27064 39848 ft 513 kts 231°
2026-05-06 18:41 3.21614 108.21383 39828 ft 512 kts 231°
2026-05-06 18:42 3.17299 108.15703 39842 ft 512 kts 231°
2026-05-06 18:42 3.12986 108.10029 39844 ft 512 kts 231°
2026-05-06 18:43 3.08673 108.04355 39844 ft 512 kts 231°
2026-05-06 18:43 3.04388 107.98718 39842 ft 512 kts 231°
2026-05-06 18:44 3.00083 107.93055 39845 ft 512 kts 231°
2026-05-06 18:44 2.95767 107.87379 39829 ft 512 kts 231°
2026-05-06 18:45 2.91456 107.81712 39844 ft 512 kts 231°
2026-05-06 18:45 2.87150 107.76049 39842 ft 509 kts 231°
2026-05-06 18:46 2.82859 107.70410 39843 ft 510 kts 231°
2026-05-06 18:46 2.78636 107.64860 39843 ft 512 kts 231°
2026-05-06 18:47 2.74316 107.59183 39846 ft 512 kts 231°
2026-05-06 18:47 2.70003 107.53515 39845 ft 512 kts 231°
2026-05-06 18:48 2.65710 107.47875 39849 ft 512 kts 231°
2026-05-06 18:48 2.61396 107.42208 39847 ft 512 kts 231°
2026-05-06 18:49 2.57071 107.36528 39844 ft 513 kts 232°
2026-05-06 18:49 2.52764 107.30871 39846 ft 513 kts 231°
2026-05-06 18:50 2.48438 107.25190 39845 ft 512 kts 231°
2026-05-06 18:50 2.44121 107.19522 39844 ft 512 kts 231°
2026-05-06 18:51 2.39808 107.13860 39830 ft 512 kts 231°
2026-05-06 18:51 2.35492 107.08198 39828 ft 511 kts 231°
2026-05-06 18:52 2.31162 107.02542 39834 ft 512 kts 231°
2026-05-06 18:52 2.26844 106.96910 39831 ft 514 kts 231°
2026-05-06 18:53 2.22486 106.91223 39830 ft 514 kts 231°
2026-05-06 18:53 2.18138 106.85548 39834 ft 514 kts 231°
2026-05-06 18:54 2.13799 106.79884 39850 ft 512 kts 231°
2026-05-06 18:54 2.09495 106.74267 39850 ft 512 kts 231°
2026-05-06 18:55 2.05165 106.68617 39835 ft 512 kts 231°
2026-05-06 18:55 2.00811 106.62937 39836 ft 514 kts 231°
2026-05-06 18:56 1.96477 106.57282 39837 ft 515 kts 231°
2026-05-06 18:56 1.92116 106.51593 39838 ft 515 kts 231°
2026-05-06 18:57 1.87748 106.45895 39853 ft 515 kts 231°
2026-05-06 18:57 1.83387 106.40208 39852 ft 515 kts 231°
2026-05-06 18:58 1.79025 106.34519 39850 ft 515 kts 231°
2026-05-06 18:58 1.74684 106.28859 39852 ft 516 kts 231°
2026-05-06 18:59 1.70313 106.23160 39851 ft 517 kts 231°
2026-05-06 18:59 1.65931 106.17447 39851 ft 517 kts 231°
2026-05-06 19:00 1.61553 106.11741 39847 ft 517 kts 232°
2026-05-06 19:00 1.57178 106.06032 39831 ft 517 kts 232°
2026-05-06 19:01 1.52849 106.00386 39517 ft 506 kts 231°
2026-05-06 19:01 1.50712 105.97600 38993 ft 502 kts 232°
2026-05-06 19:01 1.48592 105.94835 38343 ft 501 kts 232°
2026-05-06 19:01 1.46465 105.92063 37572 ft 502 kts 232°
2026-05-06 19:02 1.44342 105.89294 36856 ft 501 kts 232°
2026-05-06 19:02 1.42223 105.86531 36136 ft 501 kts 232°
2026-05-06 19:02 1.40104 105.83770 35404 ft 501 kts 232°
2026-05-06 19:02 1.37982 105.81004 34672 ft 501 kts 232°
2026-05-06 19:03 1.35864 105.78243 33915 ft 502 kts 232°
2026-05-06 19:03 1.33734 105.75468 33045 ft 503 kts 232°
2026-05-06 19:03 1.31630 105.72716 32070 ft 506 kts 232°
2026-05-06 19:03 1.29478 105.69901 31044 ft 511 kts 232°
2026-05-06 19:04 1.27312 105.67070 30065 ft 515 kts 231°
2026-05-06 19:04 1.25135 105.64223 29143 ft 515 kts 231°
2026-05-06 19:04 1.22962 105.61384 28377 ft 510 kts 232°
2026-05-06 19:04 1.20898 105.58516 27674 ft 506 kts 238°
2026-05-06 19:05 1.19442 105.55336 26987 ft 503 kts 252°
2026-05-06 19:05 1.18831 105.51921 26320 ft 498 kts 266°
2026-05-06 19:05 1.18702 105.48482 25683 ft 493 kts 269°
2026-05-06 19:05 1.18647 105.45073 25043 ft 488 kts 269°
2026-05-06 19:06 1.18590 105.41701 24409 ft 484 kts 269°
2026-05-06 19:06 1.18522 105.38351 23783 ft 480 kts 269°
2026-05-06 19:06 1.18448 105.35042 23325 ft 471 kts 269°
2026-05-06 19:06 1.18371 105.31810 23022 ft 457 kts 269°
2026-05-06 19:07 1.18294 105.28679 22757 ft 443 kts 269°
2026-05-06 19:07 1.18219 105.25675 22514 ft 431 kts 269°
2026-05-06 19:07 1.18144 105.22720 22201 ft 420 kts 269°
2026-05-06 19:07 1.18071 105.19820 21699 ft 411 kts 269°
2026-05-06 19:08 1.17998 105.16990 20903 ft 405 kts 269°
2026-05-06 19:08 1.17927 105.14183 19822 ft 404 kts 269°
2026-05-06 19:08 1.17855 105.11374 18703 ft 403 kts 269°
2026-05-06 19:08 1.17787 105.08579 17495 ft 400 kts 269°
2026-05-06 19:09 1.17729 105.05810 16257 ft 397 kts 269°
2026-05-06 19:09 1.17673 105.03096 15082 ft 393 kts 269°
2026-05-06 19:09 1.17616 105.00379 14067 ft 386 kts 269°
2026-05-06 19:09 1.17561 104.97764 13450 ft 367 kts 269°
2026-05-06 19:10 1.17508 104.95260 12591 ft 355 kts 269°
2026-05-06 19:10 1.17456 104.92813 11661 ft 348 kts 269°
2026-05-06 19:10 1.17405 104.90419 10734 ft 341 kts 269°
2026-05-06 19:10 1.17355 104.88071 9842 ft 335 kts 268°
2026-05-06 19:11 1.17306 104.85767 8857 ft 329 kts 268°
2026-05-06 19:11 1.17258 104.83498 7877 ft 324 kts 268°
2026-05-06 19:11 1.17211 104.81293 6949 ft 319 kts 268°
2026-05-06 19:11 1.17163 104.79098 6031 ft 313 kts 268°
2026-05-06 19:12 1.17114 104.76936 5084 ft 309 kts 268°
2026-05-06 19:12 1.17064 104.74808 4249 ft 304 kts 268°
2026-05-06 19:12 1.17016 104.72701 3727 ft 304 kts 268°
2026-05-06 19:12 1.16967 104.70592 3512 ft 304 kts 268°
2026-05-06 19:13 1.16919 104.68481 3483 ft 303 kts 268°
2026-05-06 19:13 1.16871 104.66378 3484 ft 302 kts 268°
2026-05-06 19:13 1.16823 104.64279 3485 ft 302 kts 268°
2026-05-06 19:13 1.16774 104.62174 3486 ft 303 kts 268°
2026-05-06 19:14 1.16728 104.60140 3493 ft 282 kts 268°
2026-05-06 19:14 1.16685 104.58255 3495 ft 263 kts 268°
2026-05-06 19:14 1.16644 104.56450 3493 ft 258 kts 268°
2026-05-06 19:14 1.16602 104.54654 3489 ft 259 kts 268°
2026-05-06 19:15 1.16560 104.52857 3486 ft 259 kts 268°
2026-05-06 19:15 1.16519 104.51078 3487 ft 259 kts 268°
2026-05-06 19:15 1.16478 104.49279 3491 ft 259 kts 268°
2026-05-06 19:15 1.16437 104.47476 3489 ft 259 kts 268°
2026-05-06 19:16 1.16546 104.45684 3487 ft 260 kts 282°
2026-05-06 19:16 1.17265 104.44033 3493 ft 260 kts 301°
2026-05-06 19:16 1.18263 104.42524 3491 ft 260 kts 304°
2026-05-06 19:16 1.19300 104.41037 3489 ft 260 kts 304°
2026-05-06 19:17 1.20331 104.39553 3487 ft 260 kts 304°
2026-05-06 19:17 1.21358 104.38062 3488 ft 260 kts 304°
2026-05-06 19:17 1.22380 104.36569 3488 ft 260 kts 304°
2026-05-06 19:17 1.23399 104.35076 3489 ft 260 kts 304°
2026-05-06 19:18 1.24419 104.33578 3490 ft 260 kts 304°
2026-05-06 19:18 1.25450 104.32064 3488 ft 268 kts 304°
2026-05-06 19:18 1.26505 104.30513 3487 ft 271 kts 303°
2026-05-06 19:18 1.27566 104.28952 3489 ft 271 kts 304°
2026-05-06 19:19 1.28626 104.27393 3492 ft 271 kts 304°
2026-05-06 19:19 1.29675 104.25851 3490 ft 271 kts 303°
2026-05-06 19:19 1.30736 104.24291 3490 ft 271 kts 304°
2026-05-06 19:19 1.31800 104.22736 3489 ft 270 kts 305°
2026-05-06 19:20 1.33085 104.21476 3489 ft 251 kts 329°
2026-05-06 19:20 1.34676 104.20900 3499 ft 240 kts 346°
2026-05-06 19:20 1.36307 104.20541 3494 ft 240 kts 348°
2026-05-06 19:20 1.37948 104.20207 3490 ft 240 kts 348°
2026-05-06 19:21 1.39583 104.19871 3487 ft 240 kts 348°
2026-05-06 19:21 1.41221 104.19529 3486 ft 240 kts 348°
2026-05-06 19:21 1.42837 104.19187 3485 ft 240 kts 348°
2026-05-06 19:21 1.44471 104.18840 3486 ft 240 kts 348°
2026-05-06 19:22 1.46092 104.18427 3484 ft 241 kts 340°
2026-05-06 19:22 1.47552 104.17603 3156 ft 244 kts 318°
2026-05-06 19:22 1.48482 104.16223 2832 ft 239 kts 288°
2026-05-06 19:22 1.48552 104.14602 2567 ft 235 kts 257°
2026-05-06 19:23 1.48096 104.13067 2492 ft 222 kts 251°
2026-05-06 19:23 1.47623 104.11674 2517 ft 202 kts 250°
2026-05-06 19:23 1.47198 104.10409 2498 ft 182 kts 251°
2026-05-06 19:23 1.46822 104.09264 2503 ft 163 kts 251°
2026-05-06 19:24 1.46493 104.08246 2494 ft 144 kts 251°
2026-05-06 19:24 1.46199 104.07328 2500 ft 135 kts 251°
2026-05-06 19:24 1.45915 104.06435 2505 ft 136 kts 251°
2026-05-06 19:24 1.45627 104.05527 2481 ft 138 kts 251°
2026-05-06 19:25 1.45342 104.04626 2476 ft 138 kts 251°
2026-05-06 19:25 1.45053 104.03710 2476 ft 138 kts 251°
2026-05-06 19:25 1.44764 104.02793 2472 ft 138 kts 251°
2026-05-06 19:25 1.44315 104.01961 2465 ft 138 kts 224°
2026-05-06 19:26 1.43578 104.01350 2465 ft 137 kts 213°
2026-05-06 19:26 1.42694 104.00992 2475 ft 137 kts 195°
2026-05-06 19:26 1.41773 104.00708 2371 ft 142 kts 198°
2026-05-06 19:26 1.40804 104.00301 1692 ft 161 kts 204°
2026-05-06 19:27 1.39697 103.99829 768 ft 183 kts 203°
2026-05-06 19:27 1.38566 103.99319 370 ft 171 kts 206°
2026-05-06 19:27 1.37551 103.98872 54 ft 159 kts 203°
2026-05-06 19:27 1.36726 103.98518 30 ft 88 kts 203°
2026-05-06 19:28 1.36435 103.98399 30 ft 2 kts 202°